<?xml version="1.0"?>
<gpx xmlns="http://www.topografix.com/GPX/1/1" xmlns:xsi="http://www.w3.org/2001/XMLSchema-instance" version="1.1" creator="GPX RubyGem 1.0.0 -- http://dougfales.github.io/gpx/" xsi:schemaLocation="http://www.topografix.com/GPX/1/1 http://www.topografix.com/GPX/1/1/gpx.xsd">
  <metadata>
    <name/>
    <time>2026-05-10T00:36:45+00:00</time>
    <bound minlat="90.0" minlon="180.0" maxlat="-90.0" maxlon="-180.0"/>
  </metadata>
  <trk>
    <name/>
    <trkseg>
      <trkpt lat="49.942113" lon="7.77311">
        <time>1970-01-01T00:00:00+00:00</time>
        <ele>226.0</ele>
      </trkpt>
      <trkpt lat="49.942065" lon="7.773165">
        <time>1970-01-01T00:00:00+00:00</time>
        <ele>226.0</ele>
      </trkpt>
      <trkpt lat="49.94186" lon="7.773076">
        <time>1970-01-01T00:00:00+00:00</time>
        <ele>228.0</ele>
      </trkpt>
      <trkpt lat="49.941742" lon="7.773473">
        <time>1970-01-01T00:00:00+00:00</time>
        <ele>228.0</ele>
      </trkpt>
      <trkpt lat="49.94138" lon="7.773775">
        <time>1970-01-01T00:00:00+00:00</time>
        <ele>226.0</ele>
      </trkpt>
      <trkpt lat="49.941325" lon="7.773752">
        <time>1970-01-01T00:00:00+00:00</time>
        <ele>227.0</ele>
      </trkpt>
      <trkpt lat="49.94103" lon="7.774101">
        <time>1970-01-01T00:00:00+00:00</time>
        <ele>230.0</ele>
      </trkpt>
      <trkpt lat="49.940893" lon="7.774299">
        <time>1970-01-01T00:00:00+00:00</time>
        <ele>232.0</ele>
      </trkpt>
      <trkpt lat="49.940831" lon="7.774597">
        <time>1970-01-01T00:00:00+00:00</time>
        <ele>235.0</ele>
      </trkpt>
      <trkpt lat="49.940793" lon="7.775097">
        <time>1970-01-01T00:00:00+00:00</time>
        <ele>234.0</ele>
      </trkpt>
      <trkpt lat="49.940832" lon="7.77537">
        <time>1970-01-01T00:00:00+00:00</time>
        <ele>230.0</ele>
      </trkpt>
      <trkpt lat="49.940964" lon="7.776011">
        <time>1970-01-01T00:00:00+00:00</time>
        <ele>225.0</ele>
      </trkpt>
      <trkpt lat="49.940973" lon="7.776116">
        <time>1970-01-01T00:00:00+00:00</time>
        <ele>226.0</ele>
      </trkpt>
      <trkpt lat="49.940975" lon="7.776187">
        <time>1970-01-01T00:00:00+00:00</time>
        <ele>226.0</ele>
      </trkpt>
      <trkpt lat="49.940953" lon="7.776263">
        <time>1970-01-01T00:00:00+00:00</time>
        <ele>227.0</ele>
      </trkpt>
      <trkpt lat="49.940918" lon="7.776318">
        <time>1970-01-01T00:00:00+00:00</time>
        <ele>228.0</ele>
      </trkpt>
      <trkpt lat="49.940818" lon="7.776435">
        <time>1970-01-01T00:00:00+00:00</time>
        <ele>234.0</ele>
      </trkpt>
      <trkpt lat="49.94066" lon="7.776364">
        <time>1970-01-01T00:00:00+00:00</time>
        <ele>241.0</ele>
      </trkpt>
      <trkpt lat="49.940585" lon="7.776358">
        <time>1970-01-01T00:00:00+00:00</time>
        <ele>244.0</ele>
      </trkpt>
      <trkpt lat="49.940525" lon="7.77652">
        <time>1970-01-01T00:00:00+00:00</time>
        <ele>246.0</ele>
      </trkpt>
      <trkpt lat="49.940416" lon="7.776197">
        <time>1970-01-01T00:00:00+00:00</time>
        <ele>250.0</ele>
      </trkpt>
      <trkpt lat="49.940399" lon="7.776683">
        <time>1970-01-01T00:00:00+00:00</time>
        <ele>251.0</ele>
      </trkpt>
      <trkpt lat="49.940331" lon="7.776946">
        <time>1970-01-01T00:00:00+00:00</time>
        <ele>254.0</ele>
      </trkpt>
      <trkpt lat="49.940328" lon="7.777016">
        <time>1970-01-01T00:00:00+00:00</time>
        <ele>255.0</ele>
      </trkpt>
      <trkpt lat="49.940409" lon="7.777365">
        <time>1970-01-01T00:00:00+00:00</time>
        <ele>251.0</ele>
      </trkpt>
      <trkpt lat="49.940336" lon="7.777602">
        <time>1970-01-01T00:00:00+00:00</time>
        <ele>255.0</ele>
      </trkpt>
      <trkpt lat="49.940322" lon="7.777657">
        <time>1970-01-01T00:00:00+00:00</time>
        <ele>256.0</ele>
      </trkpt>
      <trkpt lat="49.94032" lon="7.77787">
        <time>1970-01-01T00:00:00+00:00</time>
        <ele>257.0</ele>
      </trkpt>
      <trkpt lat="49.940254" lon="7.777963">
        <time>1970-01-01T00:00:00+00:00</time>
        <ele>259.0</ele>
      </trkpt>
      <trkpt lat="49.940155" lon="7.777952">
        <time>1970-01-01T00:00:00+00:00</time>
        <ele>263.0</ele>
      </trkpt>
      <trkpt lat="49.939903" lon="7.777855">
        <time>1970-01-01T00:00:00+00:00</time>
        <ele>272.0</ele>
      </trkpt>
      <trkpt lat="49.939867" lon="7.777756">
        <time>1970-01-01T00:00:00+00:00</time>
        <ele>273.0</ele>
      </trkpt>
      <trkpt lat="49.939646" lon="7.777519">
        <time>1970-01-01T00:00:00+00:00</time>
        <ele>284.0</ele>
      </trkpt>
      <trkpt lat="49.939466" lon="7.777568">
        <time>1970-01-01T00:00:00+00:00</time>
        <ele>292.0</ele>
      </trkpt>
      <trkpt lat="49.939341" lon="7.777642">
        <time>1970-01-01T00:00:00+00:00</time>
        <ele>296.0</ele>
      </trkpt>
      <trkpt lat="49.939328" lon="7.777673">
        <time>1970-01-01T00:00:00+00:00</time>
        <ele>297.0</ele>
      </trkpt>
      <trkpt lat="49.939115" lon="7.777648">
        <time>1970-01-01T00:00:00+00:00</time>
        <ele>303.0</ele>
      </trkpt>
      <trkpt lat="49.939102" lon="7.777596">
        <time>1970-01-01T00:00:00+00:00</time>
        <ele>304.0</ele>
      </trkpt>
      <trkpt lat="49.939028" lon="7.777562">
        <time>1970-01-01T00:00:00+00:00</time>
        <ele>307.0</ele>
      </trkpt>
      <trkpt lat="49.938919" lon="7.777599">
        <time>1970-01-01T00:00:00+00:00</time>
        <ele>310.0</ele>
      </trkpt>
      <trkpt lat="49.938891" lon="7.777673">
        <time>1970-01-01T00:00:00+00:00</time>
        <ele>310.0</ele>
      </trkpt>
      <trkpt lat="49.938803" lon="7.77764">
        <time>1970-01-01T00:00:00+00:00</time>
        <ele>313.0</ele>
      </trkpt>
      <trkpt lat="49.938804" lon="7.777581">
        <time>1970-01-01T00:00:00+00:00</time>
        <ele>314.0</ele>
      </trkpt>
      <trkpt lat="49.938747" lon="7.777547">
        <time>1970-01-01T00:00:00+00:00</time>
        <ele>316.0</ele>
      </trkpt>
      <trkpt lat="49.938646" lon="7.777648">
        <time>1970-01-01T00:00:00+00:00</time>
        <ele>316.0</ele>
      </trkpt>
      <trkpt lat="49.938635" lon="7.777709">
        <time>1970-01-01T00:00:00+00:00</time>
        <ele>316.0</ele>
      </trkpt>
      <trkpt lat="49.938635" lon="7.777772">
        <time>1970-01-01T00:00:00+00:00</time>
        <ele>315.0</ele>
      </trkpt>
      <trkpt lat="49.938635" lon="7.777795">
        <time>1970-01-01T00:00:00+00:00</time>
        <ele>315.0</ele>
      </trkpt>
      <trkpt lat="49.938514" lon="7.777863">
        <time>1970-01-01T00:00:00+00:00</time>
        <ele>316.0</ele>
      </trkpt>
      <trkpt lat="49.93837" lon="7.777871">
        <time>1970-01-01T00:00:00+00:00</time>
        <ele>318.0</ele>
      </trkpt>
      <trkpt lat="49.938358" lon="7.777819">
        <time>1970-01-01T00:00:00+00:00</time>
        <ele>319.0</ele>
      </trkpt>
      <trkpt lat="49.938341" lon="7.777778">
        <time>1970-01-01T00:00:00+00:00</time>
        <ele>320.0</ele>
      </trkpt>
      <trkpt lat="49.938296" lon="7.777764">
        <time>1970-01-01T00:00:00+00:00</time>
        <ele>321.0</ele>
      </trkpt>
      <trkpt lat="49.938181" lon="7.777833">
        <time>1970-01-01T00:00:00+00:00</time>
        <ele>322.0</ele>
      </trkpt>
      <trkpt lat="49.938215" lon="7.77794">
        <time>1970-01-01T00:00:00+00:00</time>
        <ele>320.0</ele>
      </trkpt>
      <trkpt lat="49.938227" lon="7.777966">
        <time>1970-01-01T00:00:00+00:00</time>
        <ele>320.0</ele>
      </trkpt>
      <trkpt lat="49.938272" lon="7.777974">
        <time>1970-01-01T00:00:00+00:00</time>
        <ele>319.0</ele>
      </trkpt>
      <trkpt lat="49.938355" lon="7.777929">
        <time>1970-01-01T00:00:00+00:00</time>
        <ele>318.0</ele>
      </trkpt>
      <trkpt lat="49.938387" lon="7.778118">
        <time>1970-01-01T00:00:00+00:00</time>
        <ele>316.0</ele>
      </trkpt>
      <trkpt lat="49.938768" lon="7.778495">
        <time>1970-01-01T00:00:00+00:00</time>
        <ele>311.0</ele>
      </trkpt>
      <trkpt lat="49.939035" lon="7.779042">
        <time>1970-01-01T00:00:00+00:00</time>
        <ele>314.0</ele>
      </trkpt>
      <trkpt lat="49.939197" lon="7.779457">
        <time>1970-01-01T00:00:00+00:00</time>
        <ele>320.0</ele>
      </trkpt>
      <trkpt lat="49.939232" lon="7.779795">
        <time>1970-01-01T00:00:00+00:00</time>
        <ele>324.0</ele>
      </trkpt>
      <trkpt lat="49.939222" lon="7.780835">
        <time>1970-01-01T00:00:00+00:00</time>
        <ele>334.0</ele>
      </trkpt>
      <trkpt lat="49.939147" lon="7.781154">
        <time>1970-01-01T00:00:00+00:00</time>
        <ele>335.0</ele>
      </trkpt>
      <trkpt lat="49.939063" lon="7.78133">
        <time>1970-01-01T00:00:00+00:00</time>
        <ele>335.0</ele>
      </trkpt>
      <trkpt lat="49.939162" lon="7.781599">
        <time>1970-01-01T00:00:00+00:00</time>
        <ele>331.0</ele>
      </trkpt>
      <trkpt lat="49.939216" lon="7.781815">
        <time>1970-01-01T00:00:00+00:00</time>
        <ele>326.0</ele>
      </trkpt>
      <trkpt lat="49.939216" lon="7.781815">
        <time>1970-01-01T00:00:00+00:00</time>
        <ele>326.0</ele>
      </trkpt>
      <trkpt lat="49.939162" lon="7.781599">
        <time>1970-01-01T00:00:00+00:00</time>
        <ele>331.0</ele>
      </trkpt>
      <trkpt lat="49.939063" lon="7.78133">
        <time>1970-01-01T00:00:00+00:00</time>
        <ele>335.0</ele>
      </trkpt>
      <trkpt lat="49.939147" lon="7.781154">
        <time>1970-01-01T00:00:00+00:00</time>
        <ele>335.0</ele>
      </trkpt>
      <trkpt lat="49.939222" lon="7.780835">
        <time>1970-01-01T00:00:00+00:00</time>
        <ele>334.0</ele>
      </trkpt>
      <trkpt lat="49.939232" lon="7.779795">
        <time>1970-01-01T00:00:00+00:00</time>
        <ele>324.0</ele>
      </trkpt>
      <trkpt lat="49.939197" lon="7.779457">
        <time>1970-01-01T00:00:00+00:00</time>
        <ele>320.0</ele>
      </trkpt>
      <trkpt lat="49.939035" lon="7.779042">
        <time>1970-01-01T00:00:00+00:00</time>
        <ele>314.0</ele>
      </trkpt>
      <trkpt lat="49.938768" lon="7.778495">
        <time>1970-01-01T00:00:00+00:00</time>
        <ele>311.0</ele>
      </trkpt>
      <trkpt lat="49.938387" lon="7.778118">
        <time>1970-01-01T00:00:00+00:00</time>
        <ele>316.0</ele>
      </trkpt>
      <trkpt lat="49.938355" lon="7.777929">
        <time>1970-01-01T00:00:00+00:00</time>
        <ele>318.0</ele>
      </trkpt>
      <trkpt lat="49.938272" lon="7.777974">
        <time>1970-01-01T00:00:00+00:00</time>
        <ele>319.0</ele>
      </trkpt>
      <trkpt lat="49.938227" lon="7.777966">
        <time>1970-01-01T00:00:00+00:00</time>
        <ele>320.0</ele>
      </trkpt>
      <trkpt lat="49.938215" lon="7.77794">
        <time>1970-01-01T00:00:00+00:00</time>
        <ele>320.0</ele>
      </trkpt>
      <trkpt lat="49.938181" lon="7.777833">
        <time>1970-01-01T00:00:00+00:00</time>
        <ele>322.0</ele>
      </trkpt>
      <trkpt lat="49.938167" lon="7.777511">
        <time>1970-01-01T00:00:00+00:00</time>
        <ele>328.0</ele>
      </trkpt>
      <trkpt lat="49.938401" lon="7.777179">
        <time>1970-01-01T00:00:00+00:00</time>
        <ele>328.0</ele>
      </trkpt>
      <trkpt lat="49.938606" lon="7.777039">
        <time>1970-01-01T00:00:00+00:00</time>
        <ele>327.0</ele>
      </trkpt>
      <trkpt lat="49.939101" lon="7.77685">
        <time>1970-01-01T00:00:00+00:00</time>
        <ele>313.0</ele>
      </trkpt>
      <trkpt lat="49.939255" lon="7.776599">
        <time>1970-01-01T00:00:00+00:00</time>
        <ele>308.0</ele>
      </trkpt>
      <trkpt lat="49.939445" lon="7.77554">
        <time>1970-01-01T00:00:00+00:00</time>
        <ele>300.0</ele>
      </trkpt>
      <trkpt lat="49.939613" lon="7.775079">
        <time>1970-01-01T00:00:00+00:00</time>
        <ele>294.0</ele>
      </trkpt>
      <trkpt lat="49.939892" lon="7.774543">
        <time>1970-01-01T00:00:00+00:00</time>
        <ele>284.0</ele>
      </trkpt>
      <trkpt lat="49.940087" lon="7.773937">
        <time>1970-01-01T00:00:00+00:00</time>
        <ele>272.0</ele>
      </trkpt>
      <trkpt lat="49.94017" lon="7.773829">
        <time>1970-01-01T00:00:00+00:00</time>
        <ele>267.0</ele>
      </trkpt>
      <trkpt lat="49.940523" lon="7.773156">
        <time>1970-01-01T00:00:00+00:00</time>
        <ele>255.0</ele>
      </trkpt>
      <trkpt lat="49.940604" lon="7.773001">
        <time>1970-01-01T00:00:00+00:00</time>
        <ele>255.0</ele>
      </trkpt>
      <trkpt lat="49.940885" lon="7.772591">
        <time>1970-01-01T00:00:00+00:00</time>
        <ele>252.0</ele>
      </trkpt>
      <trkpt lat="49.941119" lon="7.772299">
        <time>1970-01-01T00:00:00+00:00</time>
        <ele>255.0</ele>
      </trkpt>
      <trkpt lat="49.941415" lon="7.771999">
        <time>1970-01-01T00:00:00+00:00</time>
        <ele>264.0</ele>
      </trkpt>
      <trkpt lat="49.94165" lon="7.771844">
        <time>1970-01-01T00:00:00+00:00</time>
        <ele>261.0</ele>
      </trkpt>
      <trkpt lat="49.941839" lon="7.771741">
        <time>1970-01-01T00:00:00+00:00</time>
        <ele>254.0</ele>
      </trkpt>
      <trkpt lat="49.941808" lon="7.771899">
        <time>1970-01-01T00:00:00+00:00</time>
        <ele>251.0</ele>
      </trkpt>
      <trkpt lat="49.941463" lon="7.772803">
        <time>1970-01-01T00:00:00+00:00</time>
        <ele>233.0</ele>
      </trkpt>
      <trkpt lat="49.941409" lon="7.773112">
        <time>1970-01-01T00:00:00+00:00</time>
        <ele>231.0</ele>
      </trkpt>
      <trkpt lat="49.941322" lon="7.773415">
        <time>1970-01-01T00:00:00+00:00</time>
        <ele>229.0</ele>
      </trkpt>
      <trkpt lat="49.941325" lon="7.773752">
        <time>1970-01-01T00:00:00+00:00</time>
        <ele>227.0</ele>
      </trkpt>
      <trkpt lat="49.94138" lon="7.773775">
        <time>1970-01-01T00:00:00+00:00</time>
        <ele>226.0</ele>
      </trkpt>
      <trkpt lat="49.941742" lon="7.773473">
        <time>1970-01-01T00:00:00+00:00</time>
        <ele>228.0</ele>
      </trkpt>
      <trkpt lat="49.94186" lon="7.773076">
        <time>1970-01-01T00:00:00+00:00</time>
        <ele>228.0</ele>
      </trkpt>
      <trkpt lat="49.942065" lon="7.773165">
        <time>1970-01-01T00:00:00+00:00</time>
        <ele>226.0</ele>
      </trkpt>
      <trkpt lat="49.942113" lon="7.77311">
        <time>1970-01-01T00:00:00+00:00</time>
        <ele>226.0</ele>
      </trkpt>
    </trkseg>
  </trk>
</gpx>
